Overview Statistics Trail Chart Weather Telemetry Raw packets
 

This is the latest recevied weather packets stored in our database for station/object S56VIL-11. If no packets are shown the sender has not sent any weather packets the latest 10 day(s).

<< 21 22 23 24 25 26 27 >>
Time Temp. Humidity Pressure Rain* Wind** Luminosity Snow
1788118302 21.67° C 61% 1030.4 hPa - - - -
1788117402 21.67° C 61% 1030.4 hPa - - - -
1788116502 21.67° C 61% 1030.2 hPa - - - -
1788115602 21.67° C 61% 1030.1 hPa - - - -
1788114702 22.22° C 61% 1029.9 hPa - - - -
1788113802 22.78° C 61% 1029.8 hPa - - - -
1788112902 22.78° C 61% 1029.7 hPa - - - -
1788112002 23.33° C 60% 1029.5 hPa - - - -
1788111102 23.89° C 61% 1029.5 hPa - - - -
1788110201 23.89° C 61% 1029.5 hPa - - - -
1788109301 24.44° C 60% 1029.5 hPa - - - -
1788108402 27.22° C 60% 1029.5 hPa - - - -
1788107501 28.89° C 59% 1029.5 hPa - - - -
1788106601 29.44° C 59% 1029.6 hPa - - - -
1788105701 27.78° C 60% 1029.7 hPa - - - -
1788104801 27.78° C 59% 1029.6 hPa - - - -
1788103901 27.22° C 60% 1029.7 hPa - - - -
1788103005 27.22° C 59% 1029.7 hPa - - - -
1788102101 27.78° C 60% 1029.8 hPa - - - -
1788101201 27.78° C 60% 1029.9 hPa - - - -
1788100301 27.78° C 60% 1030 hPa - - - -
1788099401 30.56° C 59% 1030 hPa - - - -
1788098501 31.67° C 59% 1030.1 hPa - - - -
1788097601 27.22° C 60% 1030.3 hPa - - - -
1788096701 27.22° C 60% 1030.4 hPa - - - -

* Rain since midnight (hover to see other rain measurements)
** Current wind speed in m/s (hover to see current wind gust speed)